Charlevoix, MI

11:36 PM EDT on April 27, 2017 (GMT -0400)
Charlevoix Municipal

Weather History for KCVX - September, 2012

Change the Weather History Date:

Friday, September 7, 2012

  Actual Average Record
Temperature  
Mean Temperature 63 °F -  
Max Temperature 68 °F 70 °F 84 °F (2001)
Min Temperature 58 °F 56 °F 41 °F (2011)
Degree Days  
Heating Degree Days 2    
Growing Degree Days 13 (Base 50)    
Moisture  
Dew Point 58 °F    
Average Humidity 84    
Maximum Humidity 97    
Minimum Humidity 64    
Precipitation  
Precipitation 0.00 in - - ()
Sea Level Pressure  
Sea Level Pressure 29.88 in    
Wind  
Wind Speed 5 mph (SW)    
Max Wind Speed 14 mph    
Max Gust Speed 18 mph    
Visibility 9 miles    
Events Rain    
Averages and records for this station are not official NWS values.
T = Trace of Precipitation, MM = Missing Value Source: NWS Daily Summary

Daily Weather History Graph

Daily Weather History Graph

Search for Another Location

Airport or City:

Trip Planner

Search our weather history database for the weather conditions in past years. The results will help you decide how hot, cold, wet, or windy it might be!

Date:

Astronomy

Sep. 07, 2012 Rise Set
Actual Time 7:10 AM EDT 8:06 PM EDT
Civil Twilight 6:40 AM EDT 8:36 PM EDT
Nautical Twilight 6:04 AM EDT 9:12 PM EDT
Astronomical Twilight 5:26 AM EDT 9:49 PM EDT
Moon 11:40 PM EDT (9/7) 2:22 PM EDT (9/7)
Length of Visible Light 13h 55m
Length of Day
12h 55m
Waning Gibbous, 58% of the Moon is Illuminated
Sep 7
Waning Gibbous
Sep 8
Last Quarter
Sep 15
New
Sep 22
First Quarter
Sep 29
Full

Hourly Weather History & Observations

Time (EDT) Temp. Dew Point Humidity Pressure Visibility Wind Dir Wind Speed Gust Speed Precip Events Conditions
12:14 AM 62.6 °F 53.6 °F 72% 29.92 in 10.0 mi South 4.6 mph - N/A   Clear
12:34 AM 64.0 °F 53.6 °F 69% 29.92 in 10.0 mi South 4.6 mph - N/A   Clear
12:54 AM 64.8 °F 53.6 °F 67% 29.92 in 10.0 mi SSW 4.6 mph - N/A   Clear
1:14 AM 64.6 °F 53.8 °F 68% 29.92 in 10.0 mi SSW 6.9 mph - N/A   Clear
1:34 AM 64.8 °F 54.1 °F 68% 29.92 in 10.0 mi SSW 5.8 mph - N/A   Clear
1:54 AM 64.6 °F 54.1 °F 69% 29.92 in 10.0 mi SSW 6.9 mph - N/A   Clear
2:14 AM 64.8 °F 54.7 °F 70% 29.91 in 10.0 mi SSW 8.1 mph - N/A   Scattered Clouds
2:35 AM 65.1 °F 54.5 °F 68% 29.91 in 10.0 mi South 8.1 mph - N/A   Clear
2:54 AM 65.3 °F 54.0 °F 67% 29.90 in 10.0 mi SSW 6.9 mph - N/A   Scattered Clouds
3:14 AM 65.5 °F 53.8 °F 66% 29.90 in 10.0 mi SSW 5.8 mph - N/A   Mostly Cloudy
3:35 AM 66.2 °F 53.6 °F 64% 29.90 in 10.0 mi SW 5.8 mph - N/A Rain Light Rain
3:54 AM 64.8 °F 54.9 °F 70% 29.91 in 10.0 mi SW 5.8 mph - N/A Rain Rain
4:14 AM 63.9 °F 56.5 °F 77% 29.90 in 10.0 mi SW 5.8 mph - N/A Rain Light Rain
4:34 AM 65.3 °F 58.6 °F 79% 29.90 in 10.0 mi West 11.5 mph - N/A   Overcast
4:54 AM 66.4 °F 58.5 °F 76% 29.89 in 10.0 mi West 8.1 mph - N/A Rain Light Rain
5:14 AM 67.3 °F 59.7 °F 77% 29.90 in 10.0 mi WNW 11.5 mph - N/A   Mostly Cloudy
5:34 AM 68.0 °F 62.1 °F 81% 29.90 in 10.0 mi NW 13.8 mph 18.4 mph N/A   Overcast
5:54 AM 66.0 °F 59.2 °F 79% 29.91 in 10.0 mi NNW 12.7 mph 18.4 mph N/A   Overcast
6:15 AM 65.5 °F 57.7 °F 76% 29.91 in 10.0 mi NNW 9.2 mph - N/A   Overcast
6:34 AM 64.9 °F 57.2 °F 76% 29.90 in 10.0 mi NNW 11.5 mph - N/A   Overcast
6:54 AM 64.6 °F 58.1 °F 79% 29.91 in 10.0 mi North 8.1 mph - N/A   Overcast
7:14 AM 64.4 °F 57.6 °F 78% 29.91 in 10.0 mi North 9.2 mph - N/A   Overcast
7:34 AM 63.9 °F 57.4 °F 79% 29.92 in 10.0 mi North 6.9 mph - N/A Rain Light Rain
7:54 AM 63.5 °F 57.4 °F 80% 29.91 in 10.0 mi ENE 4.6 mph - N/A Rain Light Rain
8:14 AM 63.0 °F 58.5 °F 85% 29.91 in 10.0 mi NE 3.5 mph - N/A Rain Light Rain
8:34 AM 63.5 °F 58.3 °F 83% 29.92 in 10.0 mi Calm Calm - N/A   Mostly Cloudy
8:54 AM 63.9 °F 58.1 °F 81% 29.92 in 10.0 mi Calm Calm - N/A   Mostly Cloudy
9:14 AM 63.9 °F 58.1 °F 81% 29.92 in 10.0 mi Calm Calm - N/A   Mostly Cloudy
9:34 AM 64.4 °F 58.5 °F 81% 29.93 in 10.0 mi Calm Calm - N/A   Scattered Clouds
9:54 AM 64.6 °F 59.5 °F 84% 29.94 in 10.0 mi SW 3.5 mph - N/A   Scattered Clouds
10:14 AM 65.3 °F 58.6 °F 79% 29.94 in 10.0 mi Calm Calm - N/A   Scattered Clouds
10:34 AM 64.8 °F 59.0 °F 82% 29.93 in 10.0 mi Calm Calm - N/A   Scattered Clouds
10:54 AM 64.4 °F 59.4 °F 84% 29.93 in 10.0 mi South 3.5 mph - N/A Rain Light Rain
11:14 AM 63.9 °F 59.9 °F 87% 29.93 in 10.0 mi SSW 3.5 mph - N/A Rain Light Rain
11:34 AM 63.7 °F 60.6 °F 90% 29.92 in 10.0 mi Calm Calm - N/A Rain Rain
11:54 AM 63.9 °F 60.4 °F 89% 29.92 in 10.0 mi Calm Calm - N/A Rain Light Rain
12:14 PM 63.9 °F 60.6 °F 89% 29.92 in 10.0 mi SW 3.5 mph - N/A Rain Rain
12:34 PM 63.7 °F 61.0 °F 91% 29.92 in 7.0 mi SW 3.5 mph - N/A Rain Rain
12:54 PM 63.5 °F 61.5 °F 93% 29.92 in 10.0 mi West 4.6 mph - N/A Rain Rain
1:15 PM 63.5 °F 60.4 °F 90% 29.91 in 10.0 mi West 4.6 mph - N/A Rain Light Rain
1:34 PM 63.5 °F 60.3 °F 89% 29.90 in 10.0 mi WNW 5.8 mph - N/A Rain Light Rain
1:54 PM 63.9 °F 61.5 °F 92% 29.89 in 10.0 mi West 6.9 mph - N/A Rain Light Rain
2:15 PM 63.5 °F 59.9 °F 88% 29.89 in 10.0 mi WSW 5.8 mph - N/A Rain Light Rain
2:34 PM 62.6 °F 58.6 °F 87% 29.88 in 10.0 mi SW 3.5 mph - N/A Rain Light Rain
2:54 PM 62.6 °F 59.4 °F 89% 29.86 in 10.0 mi SE 3.5 mph - N/A   Overcast
3:14 PM 62.6 °F 59.7 °F 90% 29.87 in 10.0 mi WSW 3.5 mph - N/A Rain Rain
3:39 PM 62.6 °F 60.1 °F 91% 29.86 in 10.0 mi SSW 3.5 mph - N/A Rain Light Rain
3:59 PM 62.1 °F 59.9 °F 93% 29.86 in 10.0 mi Calm Calm - N/A Rain Light Rain
4:14 PM 61.9 °F 59.9 °F 93% 29.86 in 10.0 mi Calm Calm - N/A Rain Light Rain
4:34 PM 61.9 °F 60.1 °F 94% 29.84 in 7.0 mi Calm Calm - N/A Rain Rain
4:54 PM 61.7 °F 59.9 °F 94% 29.85 in 7.0 mi SW 4.6 mph - N/A Rain Rain
5:14 PM 61.0 °F 59.2 °F 94% 29.84 in 10.0 mi Calm Calm - N/A Rain Light Rain
5:54 PM 60.1 °F 58.5 °F 94% 29.83 in 7.0 mi South 3.5 mph - N/A Rain Rain
6:14 PM 59.9 °F 58.6 °F 96% 29.83 in 4.0 mi SSW 4.6 mph - N/A Rain Light Rain
6:34 PM 59.5 °F 58.5 °F 96% 29.83 in 7.0 mi South 4.6 mph - N/A Rain Rain
6:54 PM 59.5 °F 58.5 °F 96% 29.84 in 4.0 mi SSW 5.8 mph - N/A Rain Heavy Rain
7:14 PM 59.4 °F 58.1 °F 96% 29.84 in 7.0 mi SSW 4.6 mph - N/A Rain Rain
7:34 PM 59.0 °F 57.7 °F 96% 29.84 in 5.0 mi SSW 4.6 mph - N/A Rain Rain
7:55 PM 59.0 °F 58.1 °F 97% 29.84 in 10.0 mi South 4.6 mph - N/A   Overcast
8:14 PM 59.2 °F 58.1 °F 96% 29.83 in 10.0 mi SSW 6.9 mph - N/A   Overcast
8:34 PM 59.7 °F 58.1 °F 94% 29.83 in 3.0 mi West 5.8 mph - N/A Rain Heavy Rain
8:54 PM 59.0 °F 57.4 °F 94% 29.83 in 10.0 mi NNW 3.5 mph - N/A Rain Light Rain
9:14 PM 59.0 °F 56.7 °F 92% 29.83 in 10.0 mi NNE 9.2 mph - N/A Rain Rain
9:34 PM 58.3 °F 56.3 °F 93% 29.83 in 10.0 mi Calm Calm - N/A Rain Light Rain
9:54 PM 58.6 °F 56.5 °F 93% 29.82 in 10.0 mi Calm Calm - N/A   Mostly Cloudy
10:14 PM 59.0 °F 56.3 °F 91% 29.82 in 10.0 mi East 4.6 mph - N/A   Overcast
10:34 PM 59.0 °F 55.8 °F 89% 29.81 in 10.0 mi East 4.6 mph - N/A   Overcast
10:54 PM 59.7 °F 56.3 °F 88% 29.81 in 10.0 mi East 4.6 mph - N/A   Overcast
11:14 PM 59.2 °F 55.8 °F 88% 29.81 in 7.0 mi Calm Calm - N/A Rain Rain
11:34 PM 59.2 °F 56.3 °F 90% 29.82 in 10.0 mi Calm Calm - N/A Rain Light Rain
11:55 PM 60.6 °F 54.3 °F 80% 29.81 in 10.0 mi North 10.4 mph - N/A   Overcast